Other Public Products
Issued by NWS Grand Forks, ND

Home | Current Version | Previous Version | Graphics & Text | Print | Product List | Glossary On
Versions: 1 2 3 4 5 6 7 8 9 10 11 12 13 14 15 16 17 18 19 20 21 22 23 24 25 26 27 28 29 30 31 32 33 34 35 36 37 38 39 40 41 42 43 44 45 46 47 48 49 50
000
FPUS83 KFGF 191710
OPUFGF
PRAIRIE TO PINES WEATHER ROUNDUP
NATIONAL WEATHER SERVICE EASTERN NORTH DAKOTA/GRAND FORKS ND
1100 AM CST SUN NOV 19 2017

 **SATELLITE DATA USED TO AUGMENT SKY COVER AT AUTOMATED STATIONS**
 *****  WEATHER ACROSS EASTERN NORTH DAKOTA  *****

CITY           SKY/WX    TMP DP  RH WIND       PRES   REMARKS
GRAND FORKS    FAIR      24  19  81 S8        29.86F WCI  15
GRND FORKS AFB FAIR      25  18  74 S8        29.86F WCI  16
GRND FORKS NWS   N/A     25 N/A N/A S6          N/A  WCI  18
BUXTON         NOT AVBL
DEVILS LAKE    FAIR      30  24  78 W10       29.81F WCI  21
FARGO          FAIR      31  21  66 S12       29.90F WCI  22
WAHPETON ARPT  NOT AVBL
$$

 *****  WEATHER ACROSS CENTRAL AND WESTERN NORTH DAKOTA  *****

CITY           SKY/WX    TMP DP  RH WIND       PRES   REMARKS
JAMESTOWN      FAIR      38  24  57 W13       29.85F
BISMARCK       FAIR      42  26  53 W8        29.89F
MINOT          FAIR      37  23  56 SW12      29.80F
MINOT AFB      FAIR      35  23  62 W8        29.79F
GARRISON         N/A     35  26  69 W9        29.83F
WILLISTON      FAIR      30  23  75 S7        29.84F WCI  23
DICKINSON      FAIR      39  20  46 W15       29.85F
HETTINGER      FAIR      38  21  50 W13       29.91F
$$

 *****  OTHER OBSERVATIONS NORTHEAST NORTH DAKOTA  *****

CITY           SKY/WX    TMP DP  RH WIND       PRES   REMARKS
WALHALLA       FAIR      21  16  79 SE5       29.84S WCI  15
LANGDON        NOT AVBL
CAVALIER       FAIR      21  16  79 S7        29.85S WCI  13
GRAFTON        NOT AVBL
CANDO          FAIR      28  21  74 CALM      29.82F
FORT TOTTEN      N/A     34  22  61 W6        29.95
ROLLA          FAIR      32  23  69 NW8       29.77F WCI  25
RUGBY          NOT AVBL
 ***** THE ABOVE OBSERVATIONS ARE NON NWS ARE NOT QUALITY
        CONTROLLED AND MAY MIS-REPORT RAIN FOR SNOW...
$$

 *****  OTHER OBSERVATIONS SOUTHEAST NORTH DAKOTA *****

CITY           SKY/WX    TMP DP  RH WIND       PRES   REMARKS
COOPERSTOWN    FAIR      36  25  64 W14       29.84F
VALLEY CITY    NOT AVBL
OAKES            N/A     34  25  69 SW13      29.90F WCI  25
GWINNER          N/A     36  25  64 SW14      29.89F
SHEYENNE NWR     N/A     34  22  62 SW8       29.95S
BUFFALO        NOT AVBL
WYNDMERE       NOT AVBL
 ***** THE ABOVE OBSERVATIONS ARE NON NWS ARE NOT QUALITY
       CONTROLLED AND MAY MIS-REPORT RAIN FOR SNOW...
$$

  *****  WEATHER ACROSS NORTHERN MINNESOTA  *****

CITY           SKY/WX    TMP DP  RH WIND       PRES   REMARKS
FLAG ISLAND    CLOUDY    14   7  73 CALM      29.86F
WARROAD        FAIR      18  12  79 SW6       29.88S WCI   9
ROSEAU         FAIR      19  12  73 S5        29.87F WCI  13
HALLOCK        CLOUDY    21  16  79 SE7       29.86S WCI  13
THF RVR FALLS  PTSUNNY   23  16  74 S9        29.88F WCI  13
HALSTAD        NOT AVBL
FOSSTON        PTSUNNY   25  16  68 S8        29.87F WCI  16
BAUDETTE       CLOUDY    15  10  80 S5        29.87F WCI   8
WASKISH        PTSUNNY   19  12  73 SW7       29.89F WCI  10
CROOKSTON      FAIR      25  18  74 S7        29.89F WCI  17
$$
  *****  WEATHER ACROSS CENTRAL AND WEST MINNESOTA  *****

CITY           SKY/WX    TMP DP  RH WIND       PRES   REMARKS
BEMIDJI        FAIR      19  12  73 S5        29.88F WCI  13
PARK RAPIDS    FAIR      27  18  69 S8        29.89F WCI  19
WADENA         FAIR      27  19  74 S3        29.91F
DETROIT LAKES  FAIR      30  21  69 S6        29.90F WCI  24
MOORHEAD       FAIR      28  19  69 CALM      29.91F
FERGUS FALLS   FAIR      30  21  69 S7        29.96F WCI  23
ELBOW LAKE     FAIR      31  23  72 S8        29.94F HAZE    WCI  23
MORRIS MN      FAIR      36  25  64 SW6       29.94F
STAPLES        FAIR      27  18  69 S7        29.93F WCI  19
WHEATON        FAIR      37  25  60 SW8       29.95F
$$
  *****  WEATHER ELSEWHERE ACROSS MINNESOTA  *****

CITY           SKY/WX    TMP DP  RH WIND       PRES   REMARKS
DULUTH         CLOUDY    17   9  70 W13       29.93S WCI   4
INTRNTL FALLS  CLOUDY    14   6  70 SW5       29.89F WCI   6
ELY            PTSUNNY   12   5  73 SW6       29.89S WCI   3
CLOQUET        PTSUNNY   19   9  63 SW8       29.95S WCI   9
BRAINERD       PTSUNNY   25  14  63 SW8       29.95F WCI  16
HIBBING        CLOUDY    16   7  67 SW6       29.91F WCI   7
ALEXANDRIA     PTSUNNY   30  21  69 SW8       29.94F WCI  22
SAINT CLOUD    PTSUNNY   27  17  66 S9        29.99F WCI  18
MINNEAPOLIS    PTSUNNY   28  15  58 SW7       30.05F WCI  21
$$

  *****  WEATHER ACROSS SOUTH DAKOTA  *****

CITY           SKY/WX    TMP DP  RH WIND       PRES   REMARKS
SIOUX FALLS    FAIR      42  27  55 SW6       30.04F
BROOKINGS        N/A     40  26  57 MISG        N/A
WATERTOWN      FAIR      39  27  62 SW9       29.96F
HURON          FAIR      41  28  60 S8        29.98F
SISSETON         N/A     43  25  49 SW14      29.91F
ABERDEEN       FAIR      35  27  72 S10       29.95F
MITCHELL       FAIR      44  28  53 S8        30.02F
PIERRE         FAIR      38  25  59 VRB6      29.96F
MOBRIDGE       FAIR      40  26  57 S7        29.89F
RAPID CITY     FAIR      42  27  55 CALM      29.95F
$$

  *****  SOME WEATHER IN NEARBY STATES *****

CITY           SKY/WX    TMP DP  RH WIND       PRES   REMARKS
GLASGOW MT     FAIR      31  25  78 E6        29.81F
GREAT FALLS MT FAIR      42   9  25 SW37G53   29.81F
CHEYENNE WY    FAIR      47   9  21 W29G37    30.09F
SCOTTSBLUFF NE FAIR      48  15  26 W17       30.05F
OMAHA NE       FAIR      41  25  53 S14       30.17F
DES MOINES IA  FAIR      37  19  48 W8        30.19F
DAVENPORT IA   FAIR      29  14  53 W13G21    30.19R WCI  19
CHICAGO IL     FAIR      31  19  61 W15       30.04R WCI  20
EAU CLAIRE WI  FAIR      25   9  50 W7        30.03F WCI  17
LA CROSSE WI   FAIR      28  11  48 W5        30.09F WCI  23
$$

  *****  SOME NATIONAL WEATHER *****

CITY           SKY/WX    TMP DP  RH WIND       PRES   REMARKS
LA GUARDIA NY  PTSUNNY   51  31  46 NW29G40   29.48R
RALEIGH NC     FAIR      56  30  37 NW10G18   29.82F
ATLANTA GA     FAIR      52  36  54 NW14      30.03F
NEW ORLEANS LA FAIR      59  37  44 N13G23    30.21F
OKLAHOMA CITY  FAIR      52  27  38 SW8       30.35F
ALBUQUERQUE NM PTSUNNY   38  10  31 N5        30.34S
SALT LAKE CITY PTSUNNY   35  24  64 CALM      30.29S
LOS ANGELES CA FAIR      68  24  19 VRB7      30.08R
BOISE ID       FAIR      34  23  64 CALM      30.23R
SEATTLE WA     CLOUDY    46  28  49 SE12      29.92F
$$

*** WEATHER ACROSS MANITOBA...SASKATCHEWAN AND ONTARIO ***
                ***ONTARIO***

CITY           SKY/WX    TMP DP  RH WIND       PRES   REMARKS
GERALDTON      LGT SNOW  10   7  85 SW7       29.75F WCI   0
THUNDER BAY    PTSUNNY   18  10  73 W12       29.87F WCI   5
SIOUX LOOKOUT  LGT SNOW  10   5  79 W8        29.81S WCI  -1
TORONTO        PTSUNNY   39  27  60 NW24G33   29.63S
BIG TROUT LK   FLURRIES  10   7  85 W13       29.64S WCI  -5
PICKLE LAKE    FLURRIES  12   5  73 W13G20    29.70F WCI  -3
DRYDEN         CLOUDY    10   7  85 W7        29.82F WCI   0
KENORA         PTSUNNY   10   7  85 SW5       29.84F WCI   2
$$
                *** MANITOBA***

CITY           SKY/WX    TMP DP  RH WIND       PRES   REMARKS
BRANDON        SUNNY     14   9  79 N6        29.82R WCI   5
DAUPHIN        SUNNY     18  10  73 E5        29.84F WCI  11
ISLAND LAKE    FLURRIES   5   0  78 W12G17    29.74R WCI -11
PILOT MOUND      N/A     25  18  74 SW3         N/A
THE PAS        NOT AVBL
THOMPSON       FLURRIES  10   5  79 NW9       29.70S WCI  -2
WINNIPEG       MOSUNNY   18   9  68 SE3       29.87S
LYNN LAKE      CLOUDY     1  -2  85 NW8G18    29.73S WCI -12
CHURCHILL      SNOW      16  14  93 NW24G30   29.46S VSB 1/2 WCI  -3
$$
                ***SASKATCHEWAN***

CITY           SKY/WX    TMP DP  RH WIND       PRES   REMARKS
ESTEVAN        CLOUDY    27  19  74 SW8       29.80S WCI  18
KINDERSLEY     CLOUDY    19  16  86 S3        29.60F
LLOYDMINSTER   CLOUDY    12   9  85 E13       29.56F WCI  -3
PRINCE ALBERT  CRYSTALS  10   7  85 E7        29.80F WCI   0
REGINA         CLOUDY    14  10  85 W2        29.75F
YORKTON        SUNNY     10   7  85 W2        29.78S FOG
N. BATTLEFORD  SUNNY     10   5  79 E18G24    29.67F W


USA.gov is the U.S. government's official web portal to all federal, state and local government web resources and services.